Retour au catalogue

CENTISPACE-2 S6

ActifNavigationLEO
NORAD 68355·PAYLOAD·🇨🇳 China

Lancé Mar 22, 2026 depuis Yellow Sea Launch Area

Loading…

Prochains Passages (prochaines 24 heures)

TLE

FraisSource: Space-Track

Époque: Sep 13, 2026, 21:13 UTC

1 68355U 26060F   26256.88452345  .00000157  00000-0  12723-3 0  9992
2 68355  54.9762  50.1925 0006831 277.3570  82.6631 14.27714401 25603

Suivez CENTISPACE-2 S6 en temps réel avec AllMySat

Download on the App Store